NOAA 16 DEB, 42416

Orbit data source: Space-Track

NOAA 16 DEB, 42416 is space debris in SSO originally from a launch on Thu, 21 Sep 2000 UTC launched from the Air Force Western Test Range (AFWTR). Debris objects in space refer to the collection of defunct objects orbiting the Earth. Examples of debris include non-operational satellites, rocket bodies, and fragments generated from explosions, collisions, or faulty payload assembly.

Loading next visibility...
Identifier
42416, 2000-055TL
Orbit
SSO
Country
Flag of USUS
Related business
Manufacturer
Unknown
Mission
Spacecraft
Bus & Motor
Unknown
Mass
Unknown
Launch date (UTC)
2000-09-21 (26 years ago)
Launch vehicle
Unknown
Launch site
Air Force Western Test Range (AFWTR)
Object type
Payload
Rocket body
Debris
Shape & HBR
Unknown shape, 0.1 m
Radar Cross Section
Small (<0.1 m²)

Expand to show TLE details & history
Last TLE update: 1 day ago

TLE from 1 day ago
0 NOAA 16 DEB
1 42416U 00055TL  26118.86823330  .00017713  00000-0  35287-2 0  9994
2 42416  98.8542 265.0264 0009540  73.8809 286.3440 14.62049000522667
Epoch: 2026-04-28T20:50Z
TLE epoch observation values (Epoch: 2026-04-28T20:50:15.357Z)
Latitude
0.00003°
Longitude
95.62504°
Altitude
687.642 km
Speed
7.514 km/s
True Right ascension
17h 40m 06s
True Declination
0° 00' 00"
Sunlit
Object was in full shadow at epoch
Visualization orbit readout
Latitude
Unknown
Longitude
Unknown
Altitude
Unknown
Speed
Unknown
Apparent Right ascension
Unknown
Apparent Declination
Unknown
Sunlit
N/A
Visualization observer readout
Local Sidereal Time
11:18:55
Azimuth
Unknown
Elevation
Unknown
Doppler factor
Unknown
Orbital elements
Apogee altitude
690.412 km
Perigee altitude
676.938 km
Semi-major axis
7,061.812 km
Eccentricity
0.00095
Inclination
98.8542°
RAAN
265.0264°
Arg. of periapsis
73.8809°
True anomaly
286.23906°
Mean anomaly
286.344°
Eccentric anomaly
286.29153°
Mean motion
3.65737 °/min
Orbital period
98.43 mins
BSTAR
0.0035287
Loading maneuver chart data...
Computing Atmospheric mass density...
Loading historical data...
Loading historical data...
Loading historical data...
Loading historical data...
Loading historical data...
Loading historical data...
Loading historical data...

Documentation

Showing up to 5 results
|